| time (UTC) | temp C | wind direction | speed KPH | gust KPH | rain 1hr cm | rain 24hr cm | rain mn cm | humidity % | barometer mb |
| 20260504231600 | 15 | 68 | 0.0 | 3.2 | 0.00 | 0.00 | 0.00 | 39 | 1009.6 |
| 20260504230116 | 15 | 24 | 0.0 | 4.8 | 0.00 | 0.00 | 0.00 | 39 | 1009.5 |
| 20260504224544 | 15 | 62 | 0.0 | 3.2 | 0.00 | 0.00 | 0.00 | 39 | 1009.6 |
| 20260504223056 | 15 | 73 | 8.0 | 14.5 | 0.00 | 0.00 | 0.00 | 39 | 1009.4 |
| 20260504221611 | 16 | 20 | 0.0 | 1.6 | 0.00 | 0.00 | 0.00 | 38 | 1009.6 |
| 20260504220041 | 15 | 328 | 0.0 | 4.8 | 0.00 | 0.00 | 0.00 | 40 | 1009.8 |
| 20260504214553 | 15 | 355 | 3.2 | 12.9 | 0.00 | 0.00 | 0.00 | 40 | 1009.9 |
| 20260504213107 | 16 | 15 | 1.6 | 9.7 | 0.00 | 0.00 | 0.00 | 39 | 1009.9 |
| 20260504211556 | 16 | 332 | 3.2 | 16.1 | 0.00 | 0.00 | 0.00 | 38 | 1010.3 |
| 20260504210047 | 16 | 300 | 9.7 | 17.7 | 0.00 | 0.00 | 0.00 | 38 | 1010.4 |
| 20260504204541 | 16 | 342 | 4.8 | 22.5 | 0.00 | 0.00 | 0.00 | 39 | 1010.2 |
| 20260504203052 | 16 | 52 | 1.6 | 8.0 | 0.00 | 0.00 | 0.00 | 39 | 1010.4 |
| 20260504201542 | 16 | 15 | 0.0 | 14.5 | 0.00 | 0.00 | 0.00 | 38 | 1010.5 |
| 20260504200056 | 16 | 43 | 3.2 | 9.7 | 0.00 | 0.00 | 0.00 | 37 | 1010.4 |
| 20260504194548 | 16 | 22 | 0.0 | 17.7 | 0.00 | 0.00 | 0.00 | 38 | 1010.4 |
| 20260504193059 | 17 | 350 | 12.9 | 27.4 | 0.00 | 0.00 | 0.00 | 37 | 1010.3 |
| 20260504191554 | 16 | 14 | 9.7 | 25.7 | 0.00 | 0.00 | 0.00 | 36 | 1010.2 |
| 20260504190046 | 17 | 360 | 14.5 | 29.0 | 0.00 | 0.00 | 0.00 | 35 | 1010.0 |
| 20260504184556 | 17 | 5 | 12.9 | 32.2 | 0.00 | 0.00 | 0.00 | 36 | 1010.0 |
| 20260504183041 | 17 | 26 | 11.3 | 33.8 | 0.00 | 0.00 | 0.00 | 35 | 1009.8 |
| 20260504181552 | 17 | 9 | 19.3 | 43.5 | 0.00 | 0.00 | 0.00 | 36 | 1010.0 |
| 20260504180103 | 18 | 360 | 20.9 | 43.5 | 0.00 | 0.00 | 0.00 | 33 | 1009.9 |
| 20260504174554 | 18 | 345 | 14.5 | 38.6 | 0.00 | 0.00 | 0.00 | 31 | 1009.9 |
| 20260504173041 | 18 | 331 | 6.4 | 24.1 | 0.00 | 0.00 | 0.00 | 28 | 1010.0 |
| 20260504171612 | 20 | 336 | 6.4 | 20.9 | 0.00 | 0.00 | 0.00 | 23 | 1009.6 |
| 20260504160110 | 17 | 257 | 4.8 | 0.0 | 0.00 | 0.00 | 0.00 | 25 | 1009.4 |
| 20260504081556 | 4 | 229 | 0.0 | 1.6 | 0.00 | 0.00 | 0.00 | 64 | 1011.1 |
| 20260504060117 | 7 | 260 | 1.6 | 4.8 | 0.00 | 0.00 | 0.00 | 53 | 1012.3 |
| 20260504044613 | 9 | 16 | 0.0 | 0.0 | 0.00 | 0.00 | 0.00 | 49 | 1012.6 |
| 20260504043045 | 9 | 16 | 0.0 | 0.0 | 0.00 | 0.00 | 0.00 | 48 | 1012.7 |
| 20260504041556 | 10 | 16 | 0.0 | 0.0 | 0.00 | 0.00 | 0.00 | 47 | 1012.7 |
| 20260504040051 | 10 | 16 | 0.0 | 1.6 | 0.00 | 0.00 | 0.00 | 47 | 1012.7 |
| 20260504034541 | 11 | 59 | 0.0 | 0.0 | 0.00 | 0.00 | 0.00 | 45 | 1012.7 |
| 20260504033054 | 11 | 59 | 0.0 | 0.0 | 0.00 | 0.00 | 0.00 | 44 | 1012.7 |
| 20260504031607 | 11 | 59 | 0.0 | 4.8 | 0.00 | 0.00 | 0.00 | 43 | 1012.5 |
| 20260504030118 | 12 | 61 | 0.0 | 3.2 | 0.00 | 0.00 | 0.00 | 42 | 1012.5 |
| 20260504024547 | 13 | 57 | 1.6 | 6.4 | 0.00 | 0.00 | 0.00 | 39 | 1012.3 |
| 20260504023056 | 13 | 41 | 0.0 | 6.4 | 0.00 | 0.00 | 0.00 | 37 | 1012.4 |
| 20260504021611 | 14 | 32 | 0.0 | 3.2 | 0.00 | 0.00 | 0.00 | 35 | 1012.4 |
| 20260504020100 | 15 | 26 | 0.0 | 6.4 | 0.00 | 0.00 | 0.00 | 34 | 1012.1 |
| 20260504014549 | 16 | 31 | 3.2 | 9.7 | 0.00 | 0.00 | 0.00 | 33 | 1011.9 |
| 20260504013045 | 17 | 340 | 8.0 | 30.6 | 0.00 | 0.00 | 0.00 | 29 | 1012.1 |
| 20260504011553 | 18 | 350 | 4.8 | 12.9 | 0.00 | 0.00 | 0.00 | 23 | 1011.7 |
| 20260504010104 | 18 | 347 | 1.6 | 6.4 | 0.00 | 0.00 | 0.00 | 24 | 1011.7 |
| 20260504004557 | 18 | 22 | 4.8 | 19.3 | 0.00 | 0.00 | 0.00 | 24 | 1011.7 |
| 20260504003049 | 20 | 19 | 6.4 | 29.0 | 0.00 | 0.00 | 0.00 | 22 | 1011.6 |